Terug naar catalogus

METEOR 2-8 DEB

ActiefPO
NORAD 36857·DEBRIS·🇷🇺 Russia

Gelanceerd Mar 25, 1982 vanaf Plesetsk Cosmodrome

Loading…

Volgende Passages (komende 24 uur)

TLE

VersSource: Space-Track

Epoch: Sep 13, 2026, 09:40 UTC

1 36857U 82025AU  26256.40280529  .00001609  00000-0  69489-3 0  9992
2 36857  82.5374 136.8911 0036182 197.4378 162.5565 14.23616794124705

Volg METEOR 2-8 DEB in realtime met AllMySat

Download on the App Store